WNISAT-1

Last updated on Wed Jun 24 2026 00:03:53 GMT+0000 (Coordinated Universal Time)

1 39423U 13066H 26173.70119061 .00000728 00000+0 14120-3 0 9998 2 39423 97.7208 322.4662 0162297 214.1161 144.9526 14.58070397667536
UTC large
Height (km)
Speed (km/s)
/
Latitude / Longitude
Inclination (degrees)
Orbital Period (minutes)
Azimuth
Elevation
Range (km)
Doppler Factor

Next 0 passes for location: London (51.5072 / 0.1276)

No passes found over London.
WNISAT-1